This is the latest recevied weather packets stored in our database for station/object N8GD. If no packets are shown the sender has not sent any weather packets the latest 10 day(s).
| Time | Temp. | Humidity | Pressure | Rain* | Wind** | Luminosity | Snow |
|---|---|---|---|---|---|---|---|
| 1777740775 | 6.11° C | 74% | 1017.3 hPa | 0 mm | - | - | - |
| 1777739874 | 6.67° C | 73% | 1017.1 hPa | 0 mm | - | - | - |
| 1777738976 | 6.67° C | 75% | 1017.2 hPa | 0 mm | - | - | - |
| 1777738074 | 6.67° C | 69% | 1016.9 hPa | 0 mm | - | - | - |
| 1777737174 | 7.22° C | 60% | 1016.8 hPa | 0 mm | - | - | - |
| 1777736275 | 6.67° C | 67% | 1016.8 hPa | 0 mm | - | - | - |
| 1777735374 | 6.67° C | 64% | 1016.8 hPa | 0 mm | - | - | - |
| 1777735354 | 6.67° C | 64% | 1016.8 hPa | 0 mm | - | - | - |
| 1777734475 | 6.67° C | 68% | 1016.7 hPa | 0 mm | - | - | - |
| 1777733575 | 6.11° C | 70% | 1016.7 hPa | 0 mm | - | - | - |
| 1777732675 | 6.11° C | 76% | 1016.7 hPa | 0 mm | - | - | - |
| 1777731775 | 5.56° C | 78% | 1016.7 hPa | 0.25 mm | - | - | - |
| 1777730874 | 6.11° C | 80% | 1016.7 hPa | 0.51 mm | - | - | - |
| 1777729975 | 6.11° C | 84% | 1016.6 hPa | 0.51 mm | - | - | - |
| 1777729075 | 5° C | 90% | 1016.6 hPa | 1.02 mm | - | - | - |
| 1777728174 | 5° C | 94% | 1016.7 hPa | 0.76 mm | - | - | - |
| 1777727275 | 4.44° C | 95% | 1016.7 hPa | 0.76 mm | - | - | - |
| 1777726375 | 3.89° C | 95% | 1016.8 hPa | 0.76 mm | - | - | - |
| 1777725608 | 3.33° C | 95% | 1016.8 hPa | 0.25 mm | - | - | - |
| 1777725474 | 3.33° C | 95% | 1016.8 hPa | 0.25 mm | - | - | - |
| 1777724576 | 3.33° C | 95% | 1016.9 hPa | 0.25 mm | - | - | - |
| 1777723674 | 2.78° C | 96% | 1016.9 hPa | 0 mm | - | - | - |
| 1777722774 | 2.78° C | 96% | 1016.8 hPa | 0 mm | - | - | - |
| 1777721876 | 1.11° C | 95% | 1016.8 hPa | 0 mm | - | - | - |
| 1777720975 | 1.11° C | 95% | 1016.8 hPa | 0 mm | - | - | - |
* Rain latest hour (hover to see other rain measurements)
** Current wind speed in m/s (hover to see current wind gust speed)